Time,TemperatureF,DewpointF,PressureIn,WindDirection,WindDirectionDegrees,WindSpeedMPH,WindSpeedGustMPH,Humidity,HourlyPrecipIn,Conditions,Clouds,dailyrainin,SoftwareType,DateUTC
2013-05-23 00:03:00,72.0,67.0,29.87,SSE,157,1.0,3.0,85,0.00,,,0.00,,2013-05-23 04:03:00,
2013-05-23 00:12:00,72.0,67.0,29.87,SSE,157,1.0,3.0,85,0.00,,,0.00,,2013-05-23 04:12:00,
2013-05-23 00:22:00,71.0,66.0,29.86,ESE,103,1.0,3.0,85,0.00,,,0.00,,2013-05-23 04:22:00,
2013-05-23 00:33:00,71.0,67.0,29.86,ESE,118,1.0,5.0,86,0.00,,,0.00,,2013-05-23 04:33:00,
2013-05-23 00:43:00,71.0,67.0,29.86,ESE,118,1.0,5.0,86,0.00,,,0.00,,2013-05-23 04:43:00,
2013-05-23 00:52:00,71.0,67.0,29.87,SE,124,1.0,3.0,86,0.00,,,0.00,,2013-05-23 04:52:00,
2013-05-23 01:02:00,71.0,67.0,29.86,ESE,114,0.0,3.0,86,0.00,,,0.00,,2013-05-23 05:02:00,
2013-05-23 01:11:00,71.0,67.0,29.86,ESE,114,0.0,3.0,86,0.00,,,0.00,,2013-05-23 05:11:00,
2013-05-23 01:22:00,71.0,67.0,29.86,ESE,116,2.0,5.0,86,0.00,,,0.00,,2013-05-23 05:22:00,
2013-05-23 01:32:00,70.0,66.0,29.86,ESE,112,0.0,2.0,86,0.00,,,0.00,,2013-05-23 05:32:00,
2013-05-23 01:42:00,70.0,66.0,29.86,ESE,110,1.0,5.0,86,0.00,,,0.00,,2013-05-23 05:42:00,
2013-05-23 01:52:00,70.0,66.0,29.86,ESE,110,1.0,5.0,86,0.00,,,0.00,,2013-05-23 05:52:00,
2013-05-23 02:02:00,70.0,66.0,29.85,ESE,108,1.0,5.0,87,0.00,,,0.00,,2013-05-23 06:02:00,
2013-05-23 02:12:00,70.0,66.0,29.85,ESE,108,1.0,5.0,87,0.00,,,0.00,,2013-05-23 06:12:00,
2013-05-23 02:22:00,69.0,65.0,29.85,ESE,123,1.0,6.0,86,0.00,,,0.00,,2013-05-23 06:22:00,
2013-05-23 02:32:00,69.0,65.0,29.85,NE,44,1.0,6.0,87,0.00,,,0.00,,2013-05-23 06:32:00,
2013-05-23 02:42:00,69.0,65.0,29.85,NE,44,1.0,6.0,87,0.00,,,0.00,,2013-05-23 06:42:00,
2013-05-23 02:52:00,68.0,64.0,29.85,ESE,114,1.0,5.0,88,0.00,,,0.00,,2013-05-23 06:52:00,
2013-05-23 03:02:00,67.0,64.0,29.84,ESE,115,2.0,6.0,89,0.00,,,0.00,,2013-05-23 07:02:00,
2013-05-23 03:11:00,67.0,64.0,29.84,ESE,115,2.0,6.0,89,0.00,,,0.00,,2013-05-23 07:11:00,
2013-05-23 03:22:00,67.0,64.0,29.85,ESE,123,1.0,3.0,89,0.00,,,0.00,,2013-05-23 07:22:00,
2013-05-23 03:32:00,67.0,64.0,29.85,ESE,105,1.0,3.0,89,0.00,,,0.00,,2013-05-23 07:32:00,
2013-05-23 03:42:00,67.0,64.0,29.85,ESE,105,1.0,3.0,89,0.00,,,0.00,,2013-05-23 07:42:00,
2013-05-23 03:59:00,67.0,64.0,29.85,East,89,1.0,5.0,89,0.00,,,0.00,,2013-05-23 07:59:00,
2013-05-23 04:11:00,67.0,64.0,29.84,East,95,0.0,3.0,89,0.00,,,0.00,,2013-05-23 08:11:00,
2013-05-23 04:22:00,68.0,65.0,29.84,ESE,114,0.0,3.0,89,0.00,,,0.00,,2013-05-23 08:22:00,
2013-05-23 04:32:00,68.0,65.0,29.85,East,100,2.0,5.0,89,0.00,,,0.00,,2013-05-23 08:32:00,
2013-05-23 04:42:00,68.0,65.0,29.85,East,100,2.0,5.0,89,0.00,,,0.00,,2013-05-23 08:42:00,
2013-05-23 04:51:00,68.0,65.0,29.85,ESE,110,1.0,5.0,89,0.00,,,0.00,,2013-05-23 08:51:00,
2013-05-23 05:02:00,68.0,65.0,29.85,ESE,110,1.0,3.0,89,0.00,,,0.00,,2013-05-23 09:02:00,
2013-05-23 05:11:00,68.0,65.0,29.85,ESE,110,1.0,3.0,89,0.00,,,0.00,,2013-05-23 09:11:00,
2013-05-23 05:22:00,68.0,65.0,29.85,ESE,107,1.0,7.0,90,0.00,,,0.00,,2013-05-23 09:22:00,
2013-05-23 05:33:00,67.0,64.0,29.85,ESE,123,1.0,5.0,90,0.00,,,0.00,,2013-05-23 09:33:00,
2013-05-23 05:42:00,67.0,64.0,29.85,ESE,123,1.0,5.0,90,0.00,,,0.00,,2013-05-23 09:42:00,
2013-05-23 05:53:00,67.0,64.0,29.85,ESE,106,2.0,5.0,90,0.00,,,0.00,,2013-05-23 09:53:00,
2013-05-23 06:03:00,67.0,64.0,29.86,East,79,0.0,7.0,91,0.00,,,0.00,,2013-05-23 10:03:00,
2013-05-23 06:13:00,67.0,64.0,29.86,East,79,0.0,7.0,91,0.00,,,0.00,,2013-05-23 10:13:00,
2013-05-23 06:22:00,67.0,64.0,29.86,SSE,161,1.0,5.0,91,0.00,,,0.00,,2013-05-23 10:22:00,
2013-05-23 06:32:00,68.0,65.0,29.87,SE,125,0.0,3.0,90,0.00,,,0.00,,2013-05-23 10:32:00,
2013-05-23 06:42:00,68.0,65.0,29.87,SE,125,0.0,3.0,90,0.00,,,0.00,,2013-05-23 10:42:00,
2013-05-23 06:52:00,69.0,66.0,29.87,ESE,113,0.0,6.0,90,0.00,,,0.00,,2013-05-23 10:52:00,
2013-05-23 07:02:00,69.0,66.0,29.88,ESE,110,1.0,3.0,89,0.00,,,0.00,,2013-05-23 11:02:00,
2013-05-23 07:11:00,69.0,66.0,29.88,ESE,110,1.0,3.0,89,0.00,,,0.00,,2013-05-23 11:11:00,
2013-05-23 07:22:00,70.0,67.0,29.88,ESE,117,1.0,3.0,89,0.00,,,0.00,,2013-05-23 11:22:00,
2013-05-23 07:32:00,70.0,66.0,29.88,SE,131,1.0,6.0,88,0.00,,,0.00,,2013-05-23 11:32:00,
2013-05-23 07:42:00,70.0,66.0,29.88,SE,131,1.0,6.0,88,0.00,,,0.00,,2013-05-23 11:42:00,
2013-05-23 07:52:00,71.0,67.0,29.88,ESE,118,1.0,5.0,88,0.00,,,0.00,,2013-05-23 11:52:00,
2013-05-23 08:01:00,72.0,68.0,29.88,West,278,1.0,5.0,88,0.00,,,0.00,,2013-05-23 12:01:00,
2013-05-23 08:12:00,72.0,68.0,29.88,West,278,1.0,5.0,88,0.00,,,0.00,,2013-05-23 12:12:00,
2013-05-23 08:21:00,72.0,68.0,29.88,SSW,212,1.0,6.0,88,0.00,,,0.00,,2013-05-23 12:21:00,
2013-05-23 08:32:00,72.0,68.0,29.88,South,180,0.0,8.0,87,0.00,,,0.00,,2013-05-23 12:32:00,
2013-05-23 08:42:00,72.0,68.0,29.88,South,180,0.0,8.0,87,0.00,,,0.00,,2013-05-23 12:42:00,
2013-05-23 08:52:00,73.0,69.0,29.88,SE,124,1.0,6.0,87,0.00,,,0.00,,2013-05-23 12:52:00,
2013-05-23 09:02:00,71.0,67.0,29.88,SE,131,1.0,3.0,88,0.00,,,0.00,,2013-05-23 13:02:00,
2013-05-23 09:11:00,71.0,67.0,29.88,SE,131,1.0,3.0,88,0.00,,,0.00,,2013-05-23 13:11:00,
2013-05-23 09:22:00,71.0,67.0,29.89,ESE,116,1.0,5.0,88,0.00,,,0.00,,2013-05-23 13:22:00,
2013-05-23 09:32:00,72.0,68.0,29.88,ESE,103,1.0,5.0,87,0.00,,,0.00,,2013-05-23 13:32:00,
2013-05-23 09:42:00,72.0,68.0,29.88,ESE,103,1.0,5.0,87,0.00,,,0.00,,2013-05-23 13:42:00,
2013-05-23 09:52:00,72.0,68.0,29.88,SE,129,0.0,6.0,86,0.00,,,0.00,,2013-05-23 13:52:00,
2013-05-23 10:02:00,75.0,69.0,29.87,SSE,149,1.0,5.0,82,0.00,,,0.00,,2013-05-23 14:02:00,
2013-05-23 10:11:00,75.0,69.0,29.87,SSE,149,1.0,5.0,82,0.00,,,0.00,,2013-05-23 14:11:00,
2013-05-23 10:21:00,78.0,70.0,29.87,SSW,199,2.0,9.0,76,0.00,,,0.00,,2013-05-23 14:21:00,
2013-05-23 10:32:00,78.0,69.0,29.88,SSW,202,3.0,9.0,73,0.00,,,0.00,,2013-05-23 14:32:00,
2013-05-23 10:42:00,78.0,69.0,29.88,SSW,202,3.0,9.0,73,0.00,,,0.00,,2013-05-23 14:42:00,
2013-05-23 10:52:00,78.0,69.0,29.88,SSE,148,3.0,9.0,74,0.00,,,0.00,,2013-05-23 14:52:00,
2013-05-23 11:01:00,78.0,69.0,29.88,SSE,166,3.0,10.0,73,0.00,,,0.00,,2013-05-23 15:01:00,
2013-05-23 11:11:00,78.0,69.0,29.88,SSE,166,3.0,10.0,73,0.00,,,0.00,,2013-05-23 15:11:00,
2013-05-23 11:22:00,80.0,69.0,29.88,ESE,106,3.0,15.0,70,0.00,,,0.00,,2013-05-23 15:22:00,
2013-05-23 11:33:00,78.0,68.0,29.87,SE,139,2.0,10.0,72,0.00,,,0.00,,2013-05-23 15:33:00,
2013-05-23 11:42:00,78.0,68.0,29.87,SE,139,2.0,10.0,72,0.00,,,0.00,,2013-05-23 15:42:00,
2013-05-23 11:53:00,78.0,68.0,29.87,East,83,3.0,9.0,72,0.00,,,0.00,,2013-05-23 15:53:00,
2013-05-23 12:03:00,77.0,68.0,29.86,ESE,105,5.0,12.0,75,0.00,,,0.00,,2013-05-23 16:03:00,
2013-05-23 12:12:00,77.0,68.0,29.86,ESE,105,5.0,12.0,75,0.00,,,0.00,,2013-05-23 16:12:00,
2013-05-23 12:23:00,78.0,68.0,29.86,ESE,120,4.0,9.0,72,0.00,,,0.00,,2013-05-23 16:23:00,
2013-05-23 12:34:00,80.0,70.0,29.85,SE,131,2.0,12.0,71,0.00,,,0.00,,2013-05-23 16:34:00,
2013-05-23 12:42:00,80.0,70.0,29.85,SE,131,2.0,12.0,71,0.00,,,0.00,,2013-05-23 16:42:00,
2013-05-23 12:52:00,81.0,69.0,29.85,East,96,3.0,10.0,68,0.00,,,0.00,,2013-05-23 16:52:00,
2013-05-23 13:03:00,80.0,69.0,29.84,ESE,118,5.0,12.0,70,0.00,,,0.00,,2013-05-23 17:03:00,
2013-05-23 13:11:00,80.0,69.0,29.84,ESE,118,5.0,12.0,70,0.00,,,0.00,,2013-05-23 17:11:00,
2013-05-23 13:23:00,80.0,69.0,29.84,ESE,107,1.0,13.0,69,0.00,,,0.00,,2013-05-23 17:23:00,
2013-05-23 13:33:00,81.0,69.0,29.83,SE,131,2.0,7.0,67,0.00,,,0.00,,2013-05-23 17:33:00,
2013-05-23 13:43:00,81.0,69.0,29.83,SE,131,2.0,7.0,67,0.00,,,0.00,,2013-05-23 17:43:00,
2013-05-23 13:52:00,83.0,69.0,29.83,ESE,110,6.0,14.0,62,0.00,,,0.00,,2013-05-23 17:52:00,
2013-05-23 14:01:00,83.0,69.0,29.83,East,101,5.0,13.0,62,0.00,,,0.00,,2013-05-23 18:01:00,
2013-05-23 14:11:00,83.0,69.0,29.83,East,101,5.0,13.0,62,0.00,,,0.00,,2013-05-23 18:11:00,
2013-05-23 14:22:00,82.0,67.0,29.82,ESE,114,6.0,12.0,61,0.00,,,0.00,,2013-05-23 18:22:00,
2013-05-23 14:32:00,80.0,68.0,29.82,ESE,102,6.0,13.0,67,0.00,,,0.00,,2013-05-23 18:32:00,
2013-05-23 14:42:00,80.0,68.0,29.82,ESE,102,6.0,13.0,67,0.00,,,0.00,,2013-05-23 18:42:00,
2013-05-23 14:52:00,78.0,68.0,29.82,East,93,5.0,12.0,72,0.00,,,0.00,,2013-05-23 18:52:00,
2013-05-23 15:01:00,76.0,68.0,29.82,ENE,68,7.0,14.0,77,0.00,,,0.00,,2013-05-23 19:01:00,
2013-05-23 15:11:00,76.0,68.0,29.82,ENE,68,7.0,14.0,77,0.00,,,0.00,,2013-05-23 19:11:00,
2013-05-23 15:21:00,75.0,69.0,29.81,East,95,4.0,12.0,81,0.00,,,0.00,,2013-05-23 19:21:00,
2013-05-23 15:32:00,70.0,67.0,29.83,ESE,102,3.0,8.0,90,0.45,,,0.45,,2013-05-23 19:32:00,
2013-05-23 15:42:00,70.0,67.0,29.83,ESE,102,3.0,8.0,90,0.45,,,0.45,,2013-05-23 19:42:00,
2013-05-23 15:52:00,70.0,68.0,29.82,ESE,121,3.0,9.0,92,0.49,,,0.49,,2013-05-23 19:52:00,
2013-05-23 16:02:00,68.0,66.0,29.82,ESE,118,3.0,7.0,93,0.53,,,0.53,,2013-05-23 20:02:00,
2013-05-23 16:11:00,68.0,66.0,29.82,ESE,118,3.0,7.0,93,0.53,,,0.53,,2013-05-23 20:11:00,
2013-05-23 16:21:00,68.0,66.0,29.82,ESE,108,2.0,7.0,93,0.57,,,0.57,,2013-05-23 20:21:00,
2013-05-23 16:32:00,67.0,65.0,29.84,South,186,1.0,7.0,94,0.49,,,0.94,,2013-05-23 20:32:00,
2013-05-23 16:42:00,67.0,65.0,29.84,South,186,1.0,7.0,94,0.49,,,0.94,,2013-05-23 20:42:00,
2013-05-23 16:52:00,67.0,66.0,29.83,SE,135,1.0,6.0,95,0.77,,,1.26,,2013-05-23 20:52:00,
2013-05-23 17:01:00,67.0,66.0,29.81,ESE,122,1.0,5.0,95,0.81,,,1.34,,2013-05-23 21:01:00,
2013-05-23 17:11:00,67.0,66.0,29.81,ESE,122,1.0,5.0,95,0.81,,,1.34,,2013-05-23 21:11:00,
2013-05-23 17:22:00,67.0,66.0,29.82,East,98,3.0,9.0,95,0.77,,,1.34,,2013-05-23 21:22:00,
2013-05-23 17:32:00,67.0,65.0,29.81,ESE,116,3.0,9.0,94,0.40,,,1.34,,2013-05-23 21:32:00,
2013-05-23 17:43:00,67.0,65.0,29.81,ESE,116,3.0,9.0,94,0.40,,,1.34,,2013-05-23 21:43:00,
2013-05-23 17:53:00,67.0,65.0,29.81,East,97,2.0,8.0,94,0.08,,,1.34,,2013-05-23 21:53:00,
2013-05-23 18:03:00,67.0,65.0,29.81,ESE,115,2.0,5.0,93,0.00,,,1.34,,2013-05-23 22:03:00,
2013-05-23 18:12:00,67.0,65.0,29.81,ESE,115,2.0,5.0,93,0.00,,,1.34,,2013-05-23 22:12:00,
2013-05-23 18:22:00,67.0,65.0,29.81,ESE,110,1.0,3.0,94,0.00,,,1.34,,2013-05-23 22:22:00,
2013-05-23 18:33:00,68.0,66.0,29.81,SSW,197,1.0,3.0,94,0.01,,,1.35,,2013-05-23 22:33:00,
2013-05-23 18:42:00,68.0,66.0,29.81,SSW,197,1.0,3.0,94,0.01,,,1.35,,2013-05-23 22:42:00,
2013-05-23 18:52:00,68.0,66.0,29.80,ESE,106,2.0,6.0,93,0.01,,,1.35,,2013-05-23 22:52:00,
2013-05-23 19:02:00,67.0,65.0,29.80,ESE,102,0.0,8.0,93,0.01,,,1.35,,2013-05-23 23:02:00,
2013-05-23 19:11:00,67.0,65.0,29.80,ESE,102,0.0,8.0,93,0.01,,,1.35,,2013-05-23 23:11:00,
2013-05-23 19:21:00,67.0,65.0,29.80,ESE,102,0.0,8.0,93,0.01,,,1.35,,2013-05-23 23:21:00,
2013-05-23 19:32:00,67.0,65.0,29.80,ESE,102,0.0,8.0,93,0.01,,,1.35,,2013-05-23 23:32:00,
2013-05-23 19:52:00,67.0,65.0,29.80,ESE,110,3.0,9.0,93,0.00,,,1.35,,2013-05-23 23:52:00,
2013-05-23 20:01:00,66.0,64.0,29.80,ESE,104,1.0,5.0,93,0.01,,,1.36,,2013-05-24 00:01:00,
2013-05-23 20:12:00,66.0,64.0,29.80,ESE,104,1.0,5.0,93,0.01,,,1.36,,2013-05-24 00:12:00,
2013-05-23 20:21:00,66.0,64.0,29.80,East,101,1.0,3.0,93,0.01,,,1.36,,2013-05-24 00:21:00,
2013-05-23 20:32:00,66.0,64.0,29.80,East,99,2.0,7.0,93,0.01,,,1.36,,2013-05-24 00:32:00,
2013-05-23 20:42:00,66.0,64.0,29.80,East,99,2.0,7.0,93,0.01,,,1.36,,2013-05-24 00:42:00,
2013-05-23 20:52:00,66.0,64.0,29.80,SE,146,2.0,7.0,93,0.01,,,1.36,,2013-05-24 00:52:00,
2013-05-23 21:01:00,66.0,64.0,29.80,ESE,110,1.0,5.0,93,0.00,,,1.36,,2013-05-24 01:01:00,
2013-05-23 21:12:00,66.0,64.0,29.80,ESE,110,1.0,5.0,93,0.00,,,1.36,,2013-05-24 01:12:00,
2013-05-23 21:22:00,66.0,64.0,29.80,ESE,104,1.0,7.0,93,0.00,,,1.36,,2013-05-24 01:22:00,
2013-05-23 21:32:00,66.0,64.0,29.80,ESE,120,3.0,7.0,93,0.00,,,1.36,,2013-05-24 01:32:00,
2013-05-23 21:42:00,66.0,64.0,29.80,ESE,120,3.0,7.0,93,0.00,,,1.36,,2013-05-24 01:42:00,
2013-05-23 21:52:00,66.0,64.0,29.80,ESE,120,1.0,9.0,93,0.00,,,1.36,,2013-05-24 01:52:00,
2013-05-23 22:02:00,65.0,63.0,29.79,East,100,1.0,9.0,93,0.00,,,1.36,,2013-05-24 02:02:00,
2013-05-23 22:12:00,65.0,63.0,29.79,East,100,1.0,9.0,93,0.00,,,1.36,,2013-05-24 02:12:00,
2013-05-23 22:22:00,65.0,63.0,29.79,SE,126,2.0,5.0,93,0.00,,,1.36,,2013-05-24 02:22:00,
2013-05-23 22:32:00,65.0,63.0,29.78,East,99,2.0,7.0,93,0.00,,,1.36,,2013-05-24 02:32:00,
2013-05-23 22:42:00,65.0,63.0,29.78,East,99,2.0,7.0,93,0.00,,,1.36,,2013-05-24 02:42:00,
2013-05-23 22:52:00,65.0,63.0,29.78,East,99,2.0,7.0,93,0.00,,,1.36,,2013-05-24 02:52:00,
2013-05-23 23:02:00,66.0,64.0,29.78,SSE,147,2.0,8.0,93,0.00,,,1.36,,2013-05-24 03:02:00,
2013-05-23 23:11:00,65.0,63.0,29.78,ESE,119,2.0,9.0,93,0.00,,,1.36,,2013-05-24 03:11:00,
2013-05-23 23:22:00,65.0,63.0,29.78,ESE,119,2.0,9.0,93,0.00,,,1.36,,2013-05-24 03:22:00,
2013-05-23 23:33:00,64.0,62.0,29.77,ESE,107,2.0,9.0,94,0.00,,,1.36,,2013-05-24 03:33:00,
2013-05-23 23:42:00,64.0,62.0,29.77,ESE,107,2.0,9.0,94,0.00,,,1.36,,2013-05-24 03:42:00,
2013-05-23 23:53:00,64.0,62.0,29.76,SE,129,1.0,9.0,94,0.00,,,1.36,,2013-05-24 03:53:00,